Back to catalog

STARLINK-35891

AliveCommunicationsVLEO
NORAD 67045·PAYLOAD·🇺🇸 United States

Launched Dec 11, 2025 from Cape Canaveral Space Force Station

Loading…

Next Passes (next 24 hours)

TLE

FreshSource: CelesTrak SupGP

Epoch: Sep 14, 2026, 15:26 UTC

1 67045C 25294R   26257.64354167 -.00039883  00000+0 -14447-2 0  2573
2 67045  43.0005  51.2566 0001463 267.6544  99.5172 15.27594260    14

Track STARLINK-35891 in real time with AllMySat

Download on the App Store